Location: Aufkirchen
(47.9603°N, 11.3653°E)
Time: 04:45:04
(UTC+01:00)

Vanguard 3 - Pass Details

Date: 26 November 2020
Orbit: 508 x 3262 km, 33.3° (Epoch: 23 January)

Event Time Altitude Azimuth Distance (km) Brightness Sun altitude
Rises 02:54:22 0° 252° (WSW) 3,721 - -46.3°
Reaches altitude 10° 02:57:53 10° 231° (SW) 3,176 - -45.7°
Maximum altitude 03:02:26 16° 196° (SSW) 3,248 - -45.0°
Exits shadow 03:07:48 11° 166° (SSE) 4,222 10.7 -44.2°
Drops below altitude 10° 03:08:24 10° 164° (SSE) 4,361 10.8 -44.1°
Sets 03:14:49 0° 147° (SSE) 5,989 11.7 -43.0°
